Tracking 20241 objects as of 27-Jan-2020
HD Live streaming from Space Station
objects crossing your sky now

COSMOS 1348

Track COSMOS 1348 now!
COSMOS 1348 is classified as:


NORAD ID: 13124
Int'l Code: 1982-029A
Perigee: 7,861.8 km
Apogee: 32,561.2 km
Inclination: 71.8 °
Period: 718.9 minutes
Semi major axis: 26582 km
RCS: 16.1516 m2 (large)
Launch date: April 7, 1982
Source: Commonwealth of Independent States (former USSR) (CIS)
Launch site: PLESETSK MISSILE AND SPACE COMPLEX (PKMTR)
aabbcc
Your satellite tracking list
Your tracking list is empty




NASA's NSSDC Master Catalog

Two Line Element Set (TLE):
1 13124U 82029A   20026.30951056 +.00000109 +00000-0 +00000-0 0  9991
2 13124 071.8036 232.2053 4645797 039.8805 090.2892 02.00313014276638
Source of the keplerian elements: AFSPC